星链-6331 (STARLINK-6331 )

导读

STARLINK-6331是美国SpaceX公司星链(Starlink)项目的卫星,于2023年7月16日发射,运行于近地低轨道。作为星链全球卫星互联网星座的组成部分,它旨在与其他卫星协同,为全球尤其是地面网络难以覆盖的偏远地区提供高速低延迟的互联网接入,目前处于在轨运行状态,助力扩展星链的全球覆盖容量与服务能力。

Basic Information
目录编号:
57351
目录名称:
STARLINK-6331
国际标识:
2023-099Z
轨道中心:
EARTH
卫星名称:
星链-6331
卫星全名:
星链-6331 (STARLINK-6331 )
卫星状态:
在轨 (已飞行1156 天)
发射日期:
2023-07-16 UTC
国别 :
美国 (US)
星等 :
--
This satellite is enrolled in the Space Conjunction Data Service (SCDS) and the current flight risk assessment level is: High Risk
Orbit Information
数据来源 国际轨道数据 AOE轨道数据
星历时间 2026-09-14T14:52:21+0800
14小时前
查看轨道信息
2026-09-10T08:00:00+0800
4天前
查看轨道信息
半长轴 6861.241km 6861.192km
偏心率 0.0001877 0.0001708
轨道倾角 43.002° 43.003°
近地点辐角 265.811° 263.571°
升交点赤经 263.573° 287.784°
平近点角 94.253° 256.953°
近地点 481.816km 481.883km
远地点 484.392km 484.227km
周期 94.268分钟 94.267分钟
每日圈数 15.275617 15.275781
Detailed Information
固有亮度:
5
最大亮度:
2.5
卫星平台:
Starlink v1.5
覆盖范围:
全球
运营商:
太空探索技术公司
运营商所在国:
美国
制造商(研发单位):
太空探索技术公司
制造商所在国:
美国
使用方式:
暂无
Satellite Introduction
星链(Starlink)计划是由太空探索技术公司(SpaceX)提出的一个巨型低轨卫星互联网星座项目,计划在2019年至2024年间在太空搭建由约1.2万颗卫星组成的“星链”网络,其中1584颗将部署在地球上空550千米处的近地轨道,并从2020年开始工作。该卫星仍在工作。
2D Orbit Map
3D Orbit Map
Orbit Altitude Analysis Chart
Orbit Inclination Analysis Chart
Orbit Comprehensive Analysis Chart
View Comprehensive Chart
Conjunction Data List
Event ID Objects TCA Miss Dist (km) Collision Risk Probability Collision Risk Index (CRI) Action
CDM_260915-171005-735106-657521
2026-09-15T
17:10:49+0000
0.412 km
远距离
2.183697E-4 高风险 0.82
CDM_260916-014805-735106-657521
2026-09-16T
01:48:40+0000
1.231 km
极远距离
8.46969E-6 低风险 0.54
CDM_260916-034905-735106-274521
2026-09-16T
03:49:17+0000
1.268 km
极远距离
7.488962E-6 低风险 0.52
CDM_260915-160305-735106-274521
2026-09-15T
16:03:07+0000
1.343 km
极远距离
6.182653E-6 低风险 0.51
CDM_260916-052305-735106-274521
2026-09-16T
05:23:26+0000
1.395 km
极远距离
5.438912E-6 低风险 0.5
CDM_260917-014005-735106-342321
2026-09-17T
01:40:35+0000
1.888 km
极远距离
2.5691E-6 低风险 0.43
CDM_260915-153605-735106-657521
2026-09-15T
15:36:40+0000
1.840 km
极远距离
2.390131E-6 低风险 0.43
CDM_260916-032205-735106-657521
2026-09-16T
03:22:49+0000
1.841 km
极远距离
2.389552E-6 低风险 0.43
CDM_260915-173705-735106-274521
2026-09-15T
17:37:17+0000
1.930 km
极远距离
2.0719E-6 低风险 0.41
CDM_260917-031405-735106-342321
2026-09-17T
03:14:44+0000
2.501 km
极远距离
1.377943E-6 低风险 0.38
Miss Distance Evolution Trend with All Objects Subscribe to Flight Safety Assessment
Collision Probability Evolution Trend with All Objects Subscribe to Flight Safety Assessment